{"data":{"norad_id":68748,"intl_designator":"2026-082W","name":"STARLINK-37325","alt_names":[],"object_type":"PAYLOAD","status":"ACTIVE","operator":null,"country":"US","launch_date":"2026-04-15","launch_site_code":"AFWTR","launch_vehicle":null,"mission":null,"orbit_class":"UNKNOWN","rcs_meters":null,"size_class":null,"mass_kg":null,"dimensions":null,"purposes":["comms"],"wikipedia_slug":null,"has_3d_model":false,"image_url":null,"decayed_at":null,"tle_current":{"epoch":"2026-09-18T20:54:39.454272Z","epoch_age_seconds":182065,"freshness":"STALE","line1":"1 68748U 26082W   26261.87128998  .00010960  00000+0  34128-3 0  9996","line2":"2 68748  97.2847 124.0104 0002156  92.6741 267.4748 15.33447381 24055","mean_motion":15.33447381,"eccentricity":0.0002156,"inclination_deg":97.2847,"raan_deg":124.0104,"arg_perigee_deg":92.6741,"mean_anomaly_deg":267.4748,"bstar":0.00034128,"rev_number":2405,"period_min":93.906058847676,"perigee_km":464.0605943882,"apogee_km":467.01158622474,"semimajor_km":6843.6730903065,"source":"CELESTRAK","updated_at":"2026-09-20T09:00:43.995305Z"}}}